Beaumont / Port Arthur, TX

5:32 AM CDT on May 29, 2017 (GMT -0500)
Beaumont Municipal

Weather History for KBMT - April, 2014

Change the Weather History Date:

Tuesday, April 8, 2014

  Actual Average (KBPT) Record (KBPT)
Temperature  
Mean Temperature 60 °F -  
Max Temperature 71 °F 77 °F 90 °F (1946)
Min Temperature 49 °F 57 °F 38 °F (2007)
Degree Days  
Heating Degree Days 4    
Growing Degree Days 10 (Base 50)    
Moisture  
Dew Point 46 °F    
Average Humidity 63    
Maximum Humidity 99    
Minimum Humidity 30    
Precipitation  
Precipitation 0.00 in - - ()
Sea Level Pressure  
Sea Level Pressure 30.03 in    
Wind  
Wind Speed 8 mph (WNW)    
Max Wind Speed 26 mph    
Max Gust Speed 39 mph    
Visibility 10 miles    
Events Rain    
Averages and records for this station are not official NWS values.
T = Trace of Precipitation, MM = Missing Value Source: NWS Daily Summary

Daily Weather History Graph

Daily Weather History Graph

Search for Another Location

Airport or City:

Trip Planner

Search our weather history database for the weather conditions in past years. The results will help you decide how hot, cold, wet, or windy it might be!

Date:

Astronomy

Apr. 08, 2014 Rise Set
Actual Time 6:57 AM CDT 7:39 PM CDT
Civil Twilight 6:33 AM CDT 8:04 PM CDT
Nautical Twilight 6:05 AM CDT 8:32 PM CDT
Astronomical Twilight 5:35 AM CDT 9:02 PM CDT
Moon 1:58 PM CDT (4/8) 2:46 AM CDT (4/8)
Length of Visible Light 13h 30m
Length of Day
12h 42m
Waxing Gibbous, 63% of the Moon is Illuminated
Apr 8
Waxing Gibbous
Apr 15
Full
Apr 22
Last Quarter
Apr 29
New
May 6
First Quarter

Hourly Weather History & Observations

Time (CDT) Temp. Dew Point Humidity Pressure Visibility Wind Dir Wind Speed Gust Speed Precip Events Conditions
12:15 AM 56.3 °F 51.6 °F 84% 29.97 in 10.0 mi Calm Calm - N/A   Scattered Clouds
12:35 AM 54.0 °F 52.0 °F 93% 29.97 in 10.0 mi Calm Calm - N/A   Clear
1:15 AM 52.7 °F 50.5 °F 92% 29.96 in 10.0 mi WNW 6.9 mph - N/A   Clear
1:35 AM 52.0 °F 50.4 °F 94% 29.97 in 10.0 mi NW 3.5 mph - N/A   Clear
1:55 AM 51.4 °F 50.2 °F 95% 29.96 in 10.0 mi Calm Calm - N/A   Scattered Clouds
2:15 AM 52.9 °F 50.9 °F 93% 29.97 in 10.0 mi Calm Calm - N/A   Mostly Cloudy
2:35 AM 53.8 °F 51.4 °F 92% 29.98 in 10.0 mi West 3.5 mph - N/A   Overcast
2:55 AM 54.9 °F 51.4 °F 88% 29.99 in 10.0 mi West 5.8 mph - N/A   Overcast
3:15 AM 54.1 °F 52.2 °F 93% 30.00 in 5.0 mi WNW 8.1 mph 18.4 mph N/A Rain Rain
3:35 AM 54.0 °F 52.0 °F 93% 29.99 in 10.0 mi NW 4.6 mph - N/A Rain Light Rain
3:55 AM 53.8 °F 51.8 °F 93% 29.97 in 10.0 mi Calm Calm - N/A   Light Drizzle
4:15 AM 53.6 °F 52.7 °F 97% 29.94 in 10.0 mi Calm Calm - N/A   Overcast
4:35 AM 52.7 °F 51.8 °F 97% 29.95 in 10.0 mi Calm Calm - N/A   Mostly Cloudy
4:55 AM 51.8 °F 51.6 °F 99% 29.97 in 10.0 mi Calm Calm - N/A   Scattered Clouds
5:15 AM 52.5 °F 51.6 °F 97% 29.98 in 10.0 mi West 4.6 mph - N/A   Mostly Cloudy
5:35 AM 52.7 °F 51.3 °F 95% 29.99 in 10.0 mi West 4.6 mph - N/A   Mostly Cloudy
5:55 AM 52.3 °F 51.4 °F 97% 30.00 in 10.0 mi West 4.6 mph - N/A   Overcast
6:15 AM 52.5 °F 51.1 °F 95% 30.01 in 10.0 mi West 5.8 mph - N/A   Overcast
6:35 AM 52.7 °F 50.9 °F 94% 30.01 in 10.0 mi WSW 4.6 mph - N/A   Scattered Clouds
6:55 AM 52.2 °F 50.4 °F 94% 30.01 in 10.0 mi West 5.8 mph - N/A   Clear
7:15 AM 52.3 °F 50.4 °F 93% 30.02 in 10.0 mi West 4.6 mph - N/A   Scattered Clouds
7:35 AM 52.0 °F 50.0 °F 93% 30.02 in 10.0 mi West 4.6 mph - N/A   Scattered Clouds
7:55 AM 53.2 °F 50.5 °F 91% 30.02 in 10.0 mi West 4.6 mph - N/A   Clear
8:15 AM 53.8 °F 51.1 °F 91% 30.03 in 10.0 mi West 5.8 mph - N/A   Clear
8:35 AM 55.6 °F 51.4 °F 86% 30.03 in 10.0 mi West 8.1 mph 17.3 mph N/A   Clear
8:55 AM 57.2 °F 51.1 °F 80% 30.04 in 10.0 mi WNW 12.7 mph 18.4 mph N/A   Clear
9:15 AM 57.7 °F 50.9 °F 78% 30.05 in 10.0 mi WNW 10.4 mph 23.0 mph N/A   Scattered Clouds
9:35 AM 60.4 °F 50.9 °F 71% 30.04 in 10.0 mi WNW 12.7 mph 18.4 mph N/A   Scattered Clouds
9:55 AM 61.2 °F 49.8 °F 66% 30.04 in 10.0 mi WNW 12.7 mph 20.7 mph N/A   Scattered Clouds
10:15 AM 62.8 °F 49.6 °F 62% 30.04 in 10.0 mi NW 13.8 mph 23.0 mph N/A   Clear
10:35 AM 64.0 °F 49.1 °F 58% 30.05 in 10.0 mi WNW 15.0 mph 23.0 mph N/A   Clear
10:55 AM 64.2 °F 48.0 °F 56% 30.05 in 10.0 mi NW 18.4 mph 21.9 mph N/A   Clear
11:15 AM 65.3 °F 48.9 °F 55% 30.06 in 10.0 mi WNW 15.0 mph 25.3 mph N/A   Clear
11:35 AM 66.2 °F 48.6 °F 53% 30.05 in 10.0 mi NW 15.0 mph 21.9 mph N/A   Clear
11:55 AM 67.1 °F 47.5 °F 49% 30.05 in 10.0 mi WNW 16.1 mph 25.3 mph N/A   Scattered Clouds
12:15 PM 68.4 °F 47.5 °F 47% 30.04 in 10.0 mi WNW 18.4 mph 27.6 mph N/A   Scattered Clouds
12:35 PM 69.3 °F 46.2 °F 44% 30.03 in 10.0 mi NW 18.4 mph 26.5 mph N/A   Scattered Clouds
12:55 PM 69.1 °F 44.4 °F 41% 30.02 in 10.0 mi WNW 21.9 mph 34.5 mph N/A   Scattered Clouds
1:15 PM 69.6 °F 43.2 °F 38% 30.02 in 10.0 mi NW 25.3 mph 34.5 mph N/A   Clear
1:35 PM 69.8 °F 43.5 °F 39% 30.02 in 10.0 mi WNW 18.4 mph 28.8 mph N/A   Clear
1:55 PM 69.1 °F 44.4 °F 41% 30.02 in 10.0 mi WNW 21.9 mph 33.4 mph N/A   Clear
2:15 PM 70.0 °F 45.0 °F 41% 30.02 in 10.0 mi NW 23.0 mph 31.1 mph N/A   Scattered Clouds
2:35 PM 70.3 °F 43.7 °F 38% 30.01 in 10.0 mi NW 17.3 mph 31.1 mph N/A   Scattered Clouds
2:55 PM 70.3 °F 44.6 °F 40% 30.00 in 10.0 mi WNW 24.2 mph 31.1 mph N/A   Scattered Clouds
3:15 PM 70.9 °F 44.1 °F 38% 30.00 in 10.0 mi WNW 19.6 mph 32.2 mph N/A   Mostly Cloudy
3:35 PM 70.5 °F 43.0 °F 37% 30.00 in 10.0 mi NW 21.9 mph 31.1 mph N/A   Scattered Clouds
3:55 PM 70.5 °F 42.6 °F 36% 30.00 in 10.0 mi NNW 26.5 mph 33.4 mph N/A   Scattered Clouds
4:15 PM 70.7 °F 43.5 °F 37% 30.00 in 10.0 mi WNW 21.9 mph 32.2 mph N/A   Scattered Clouds
4:35 PM 70.7 °F 42.8 °F 36% 30.00 in 10.0 mi WNW 19.6 mph 29.9 mph N/A   Scattered Clouds
4:55 PM 70.7 °F 41.9 °F 35% 30.00 in 10.0 mi NW 21.9 mph 32.2 mph N/A   Scattered Clouds
5:15 PM 70.7 °F 41.5 °F 35% 30.00 in 10.0 mi NW 19.6 mph 26.5 mph N/A   Clear
5:35 PM 70.2 °F 39.6 °F 33% 30.00 in 10.0 mi NNW 21.9 mph 39.1 mph N/A   Clear
5:55 PM 69.8 °F 38.5 °F 32% 30.00 in 10.0 mi NW 21.9 mph 35.7 mph N/A   Clear
6:15 PM 69.3 °F 36.9 °F 30% 30.01 in 10.0 mi NW 20.7 mph 31.1 mph N/A   Clear
6:35 PM 68.9 °F 37.2 °F 31% 30.02 in 10.0 mi NW 12.7 mph 24.2 mph N/A   Clear
6:55 PM 67.6 °F 37.4 °F 33% 30.03 in 10.0 mi NW 20.7 mph 26.5 mph N/A   Clear
7:15 PM 66.9 °F 35.2 °F 31% 30.05 in 10.0 mi NW 18.4 mph 26.5 mph N/A   Clear
7:35 PM 65.1 °F 36.1 °F 34% 30.06 in 10.0 mi NW 15.0 mph 21.9 mph N/A   Clear
7:55 PM 63.1 °F 37.2 °F 38% 30.08 in 10.0 mi NW 11.5 mph 18.4 mph N/A   Clear
8:15 PM 62.1 °F 37.4 °F 40% 30.09 in 10.0 mi WNW 12.7 mph 19.6 mph N/A   Clear
8:35 PM 60.6 °F 37.4 °F 42% 30.11 in 10.0 mi WNW 10.4 mph 16.1 mph N/A   Clear
8:55 PM 57.7 °F 38.8 °F 49% 30.12 in 10.0 mi NW 5.8 mph - N/A   Clear
9:15 PM 56.5 °F 39.4 °F 53% 30.13 in 10.0 mi NW 4.6 mph - N/A   Clear
9:35 PM 56.1 °F 38.5 °F 52% 30.15 in 10.0 mi West 3.5 mph - N/A   Clear
9:55 PM 56.7 °F 38.1 °F 50% 30.16 in 10.0 mi West 3.5 mph - N/A   Clear
10:15 PM 55.9 °F 37.8 °F 51% 30.16 in 10.0 mi West 4.6 mph - N/A   Clear
10:35 PM 54.3 °F 40.3 °F 59% 30.18 in 10.0 mi Calm Calm - N/A   Clear
10:55 PM 53.1 °F 40.5 °F 62% 30.18 in 10.0 mi Calm Calm - N/A   Clear
11:15 PM 52.5 °F 40.8 °F 64% 30.19 in 10.0 mi Calm Calm - N/A   Clear
11:35 PM 52.3 °F 41.0 °F 65% 30.18 in 10.0 mi NW 4.6 mph - N/A   Clear
11:55 PM 49.5 °F 42.8 °F 78% 30.19 in 10.0 mi NW 3.5 mph - N/A   Clear